This demonstration page uses our WeatherBlox Daily Observations layout. Learn more.

Left ArrowRight Arrow

Hourly Observations for March 22, 2018

Temp ( °F °C ) Dew Point ( °F °C ) Humidity (%) Winds ( mph kmh ) Pressure ( in mb ) Visibility ( mi km ) Precip ( " mm )
12:59 am 00:59 Cloudy 36 2.2 32 0 86 86 NW 16 26 29.83 1010 10 16 0.00 0.00
1:59 am 01:59 Cloudy 36 2.2 31 -0.6 82 82 NW 20 31 29.84 1011 10 16 0.00 0.00
2:59 am 02:59 Cloudy 36 2.2 31 -0.6 82 82 NW 16 26 29.85 1011 10 16 0.00 0.00
3:59 am 03:59 Cloudy 36 2.2 31 -0.6 82 82 NW 14 22 29.86 1011 10 16 0.00 0.00
4:59 am 04:59 Cloudy 37 2.8 31 -0.6 79 79 NW 16 26 29.88 1012 10 16 0.00 0.00
5:59 am 05:59 Cloudy 37 2.8 30 -1.1 76 76 WNW 18 30 29.91 1013 10 16 0.00 0.00
6:59 am 06:59 Mostly Cloudy 38 3.3 29 -1.7 70 70 NW 16 26 29.93 1013 10 16 0.00 0.00
7:59 am 07:59 Mostly Cloudy 38 3.3 28 -2.2 68 68 NW 17 28 29.96 1015 10 16 0.00 0.00
8:59 am 08:59 Mostly Cloudy 39 3.9 26 -3.3 60 60 NW 16 26 29.98 1015 10 16 0.00 0.00
9:59 am 09:59 Mostly Cloudy 40 4.4 27 -2.8 60 60 NW 16 26 30.00 1016 10 16 0.00 0.00
10:59 am 10:59 Partly Cloudy 44 6.7 27 -2.8 51 51 NNW 14 22 30.01 1016 10 16 0.00 0.00
11:59 am 11:59 Mostly Sunny 44 6.7 27 -2.8 51 51 WNW 20 31 30.02 1017 10 16 0.00 0.00
12:59 pm 12:59 Mostly Sunny 47 8.3 27 -2.8 46 46 W 18 30 30.01 1016 10 16 0.00 0.00
1:59 pm 13:59 Partly Cloudy 49 9.4 25 -3.9 39 39 WNW 20 31 30.00 1016 10 16 0.00 0.00
2:59 pm 14:59 Partly Cloudy 50 10 25 -3.9 38 38 WNW 18 30 29.98 1015 10 16 0.00 0.00
3:59 pm 15:59 Partly Cloudy 51 10.6 26 -3.3 38 38 W 18 30 29.98 1015 10 16 0.00 0.00
4:59 pm 16:59 Partly Cloudy 51 10.6 23 -5 33 33 WNW 18 30 29.99 1016 10 16 0.00 0.00
5:59 pm 17:59 Partly Cloudy 51 10.6 24 -4.4 35 35 WNW 15 24 30.00 1016 10 16 0.00 0.00
6:59 pm 18:59 Mostly Cloudy 48 8.9 21 -6.1 34 34 WNW 13 20 30.03 1017 10 16 0.00 0.00
7:59 pm 19:59 Mostly Cloudy 46 7.8 25 -3.9 44 44 NW 9 15 30.05 1018 10 16 0.00 0.00
8:59 pm 20:59 Mostly Cloudy 46 7.8 26 -3.3 46 46 NNW 9 15 30.08 1019 10 16 0.00 0.00
9:59 pm 21:59 Mostly Cloudy 45 7.2 28 -2.2 52 52 NNW 10 17 30.11 1020 10 16 0.00 0.00
10:59 pm 22:59 Mostly Cloudy 44 6.7 21 -6.1 40 40 NNW 16 26 30.12 1020 10 16 0.00 0.00
11:59 pm 23:59 Mostly Cloudy 43 6.1 21 -6.1 42 42 NNW 18 30 30.12 1020 10 16 0.00 0.00

Powered by AerisWeather